St. Petersburg, FL

4:07 PM EST on November 22, 2017 (GMT -0500)
Whitted

Weather History for KSPG - September, 2012

Change the Weather History Date:

Friday, September 14, 2012

  Actual Average Record
Temperature  
Mean Temperature 83 °F -  
Max Temperature 89 °F 88 °F 93 °F (1989)
Min Temperature 78 °F 75 °F 68 °F (1956)
Cooling Degree Days 18    
Growing Degree Days 33 (Base 50)    
Moisture  
Dew Point 75 °F    
Average Humidity 80    
Maximum Humidity 93    
Minimum Humidity 63    
Precipitation  
Precipitation 0.00 in - - ()
Sea Level Pressure  
Sea Level Pressure 30.02 in    
Wind  
Wind Speed 14 mph (East)    
Max Wind Speed 17 mph    
Max Gust Speed 21 mph    
Visibility 10 miles    
Events      
Averages and records for this station are not official NWS values.
T = Trace of Precipitation, MM = Missing Value Source: NWS Daily Summary

Daily Weather History Graph

Daily Weather History Graph

Search for Another Location

Airport or City:

Trip Planner

Search our weather history database for the weather conditions in past years. The results will help you decide how hot, cold, wet, or windy it might be!

Date:

Astronomy

Sep. 14, 2012 Rise Set
Actual Time 7:15 AM EDT 7:35 PM EDT
Civil Twilight 6:52 AM EDT 7:59 PM EDT
Nautical Twilight 6:24 AM EDT 8:26 PM EDT
Astronomical Twilight 5:56 AM EDT 8:54 PM EDT
Moon 5:42 AM EDT (9/14) 6:30 PM EDT (9/14)
Length of Visible Light 13h 07m
Length of Day
12h 20m
Waning Crescent, 3% of the Moon is Illuminated
Sep 14
Waning Crescent
Sep 15
New
Sep 22
First Quarter
Sep 29
Full
Oct 8
Last Quarter

Hourly Weather History & Observations

Time (EDT) Temp. Heat Index Dew Point Humidity Pressure Visibility Wind Dir Wind Speed Gust Speed Precip Events Conditions
12:53 AM 81.0 °F 86.7 °F 75.0 °F 82% 30.07 in 10.0 mi East 16.1 mph - N/A   Overcast
1:53 AM 81.0 °F 86.7 °F 75.0 °F 82% 30.06 in 10.0 mi ENE 13.8 mph - N/A   Overcast
2:53 AM 79.0 °F - 75.0 °F 88% 30.06 in 10.0 mi ENE 11.5 mph - N/A   Clear
3:53 AM 79.0 °F - 75.0 °F 88% 30.03 in 10.0 mi ENE 13.8 mph - N/A   Overcast
4:53 AM 79.0 °F - 75.0 °F 88% 30.02 in 10.0 mi NE 13.8 mph - N/A   Overcast
5:53 AM 79.0 °F - 75.0 °F 88% 30.01 in 10.0 mi ENE 13.8 mph - N/A   Partly Cloudy
6:53 AM 78.1 °F - 75.9 °F 93% 30.02 in 10.0 mi ENE 15.0 mph - N/A   Mostly Cloudy
7:53 AM 78.1 °F - 75.9 °F 93% 30.03 in 10.0 mi NE 11.5 mph - N/A   Clear
8:53 AM 80.1 °F 85.4 °F 75.9 °F 87% 30.04 in 10.0 mi ENE 16.1 mph - N/A   Clear
9:53 AM 81.0 °F 87.3 °F 75.9 °F 85% 30.04 in 10.0 mi ENE 15.0 mph - N/A   Clear
10:53 AM 82.9 °F 90.8 °F 75.9 °F 79% 30.05 in 10.0 mi East 13.8 mph - N/A   Clear
11:53 AM 84.0 °F 92.6 °F 75.9 °F 76% 30.05 in 10.0 mi East 10.4 mph - N/A   Clear
12:53 PM 86.0 °F 95.1 °F 75.0 °F 70% 30.03 in 10.0 mi ENE 11.5 mph - N/A   Clear
1:53 PM 87.1 °F 97.3 °F 75.9 °F 69% 30.02 in 10.0 mi ENE 10.4 mph - N/A   Clear
2:53 PM 88.0 °F 97.5 °F 75.0 °F 65% 29.99 in 10.0 mi East 5.8 mph - N/A   Clear
3:53 PM 88.0 °F 96.5 °F 73.9 °F 63% 29.98 in 10.0 mi ENE 9.2 mph - N/A   Clear
4:53 PM 86.0 °F 95.1 °F 75.0 °F 70% 29.98 in 10.0 mi ESE 17.3 mph 20.7 mph N/A   Mostly Cloudy
5:53 PM 84.9 °F 93.3 °F 75.0 °F 72% 29.97 in 10.0 mi SE 12.7 mph - N/A   Clear
6:53 PM 84.0 °F 91.2 °F 73.9 °F 72% 29.98 in 10.0 mi ESE 9.2 mph - N/A   Clear
7:53 PM 84.0 °F 92.6 °F 75.9 °F 76% 30.00 in 10.0 mi East 13.8 mph - N/A   Clear
8:10 PM 82.4 °F 89.5 °F 75.2 °F 79% 30.00 in 10.0 mi ENE 10.4 mph - N/A   Clear
8:53 PM 82.9 °F 90.8 °F 75.9 °F 79% 30.01 in 10.0 mi East 15.0 mph - N/A   Clear
9:53 PM 82.0 °F 88.6 °F 75.0 °F 79% 30.04 in 10.0 mi East 16.1 mph - N/A   Scattered Clouds
10:53 PM 81.0 °F 87.3 °F 75.9 °F 85% 30.04 in 10.0 mi East 16.1 mph - N/A   Partly Cloudy
11:53 PM 81.0 °F 87.3 °F 75.9 °F 85% 30.04 in 10.0 mi East 16.1 mph - N/A   Partly Cloudy